EA5CLU Weather Reports


Display with metric or nautical units.
time (UTC)temp
F
wind
direction
speed
MPH
gust
MPH
rain 1hr
in
rain 24hr
in
rain mn
in
humidity
%
barometer
mb
20260902140004 80 227 12.0 23.0 0.00 0.00 0.00 72 1023.1
20260902135003 80 214 10.0 23.0 0.00 0.00 0.00 72 1023.3
20260902134004 80 189 9.0 23.0 0.00 0.00 0.00 70 1023.2
20260902133004 80 196 10.0 21.0 0.00 0.00 0.00 71 1023.5
20260902132003 80 183 13.0 21.0 0.00 0.00 0.00 71 1023.6
20260902131003 79 221 9.0 23.0 0.00 0.00 0.00 72 1023.6
20260902130003 80 225 13.0 23.0 0.00 0.00 0.00 71 1023.7
20260902125004 80 213 9.0 28.0 0.00 0.00 0.00 71 1023.6
20260902124004 80 177 12.0 21.0 0.00 0.00 0.00 71 1023.6
20260902123003 80 166 12.0 18.0 0.00 0.00 0.00 70 1023.7
20260902122004 80 173 8.0 23.0 0.00 0.00 0.00 71 1023.7
20260902121004 80 193 9.0 23.0 0.00 0.00 0.00 71 1023.8
20260902120004 80 218 7.0 21.0 0.00 0.00 0.00 72 1023.8
20260902115004 79 189 14.0 18.0 0.00 0.00 0.00 72 1024.2
20260902114003 79 173 12.0 23.0 0.00 0.00 0.00 73 1024.0
20260902113004 79 247 10.0 18.0 0.00 0.00 0.00 71 1023.9
20260902103003 78 166 8.0 14.0 0.00 0.00 0.00 72 1024.2
20260902102004 78 208 6.0 14.0 0.00 0.00 0.00 73 1024.3
20260902101004 77 175 6.0 18.0 0.00 0.00 0.00 74 1024.3
20260902100004 76 186 10.0 14.0 0.00 0.00 0.00 75 1024.3
20260902095004 76 168 7.0 14.0 0.00 0.00 0.00 76 1024.3
20260902094004 76 183 3.0 14.0 0.00 0.00 0.00 77 1024.3
20260902091004 74 189 9.0 16.0 0.00 0.00 0.00 82 1024.5
20260902090004 73 228 8.0 18.0 0.00 0.00 0.00 82 1024.5
20260902085004 74 183 8.0 21.0 0.00 0.00 0.00 83 1024.3
20260902084004 74 198 8.0 18.0 0.00 0.00 0.00 82 1024.4
20260902083003 74 203 9.0 18.0 0.00 0.00 0.00 81 1024.2
20260902082004 73 250 6.0 14.0 0.00 0.00 0.00 82 1024.5
20260902080004 74 242 3.0 9.0 0.00 0.00 0.00 81 1023.9
20260902075003 72 209 2.0 5.0 0.00 0.00 0.00 82 1023.8
20260902074004 71 182 2.0 5.0 0.00 0.00 0.00 84 1023.7
20260902073004 71 355 1.0 2.0 0.00 0.00 0.00 84 1023.8
20260902072004 70 66 1.0 2.0 0.00 0.00 0.00 87 1023.8
20260902071004 69 327 1.0 7.0 0.00 0.00 0.00 89 1023.5
20260901170004 75 168 7.0 21.0 0.00 0.00 0.00 80 1021.1
20260901164004 76 155 10.0 21.0 0.00 0.00 0.00 78 1021.1
20260901163003 76 103 9.0 21.0 0.00 0.00 0.00 78 1020.7